AirNav   ProFlight Series 2 Aviation Headset
 
 996 users online  

H92 Hominy Municipal Airport
Hominy, Oklahoma, USA

GOING TO HOMINY?


FAA INFORMATION EFFECTIVE 08 OCTOBER 2020

Location

FAA Identifier: H92
Lat/Long: 36-26-33.9000N 096-23-14.0000W
36-26.565000N 096-23.233333W
36.4427500,-96.3872222
(estimated)
Elevation: 825 ft. / 251 m (estimated)
Variation: 06E (1985)
From city: 2 miles N of HOMINY, OK
Time zone: UTC -5 (UTC -6 during Standard Time)
Zip code: 74035

Airport Operations

Airport use: Open to the public
Activation date: 04/1947
Control tower: no
ARTCC: KANSAS CITY CENTER
FSS: MC ALESTER FLIGHT SERVICE STATION
NOTAMs facility: MLC (NOTAM-D service available)
Attendance: UNATNDD
Wind indicator: lighted
Segmented circle: yes
Lights: ACTVT MIRL RY 17/35 - CTAF.
Beacon: white-green (lighted land airport)
Operates sunset to sunrise.

Airport Communications

CTAF: 122.9
WX AWOS-3 at OWP (20 nm SE): 118.325 (918-246-2635)

Nearby radio navigation aids

VOR radial/distance  VOR name  Freq  Var
BVOr209/29.4BARTLESVILLE VOR/DME117.9008E
TULr289/32.5TULSA VORTAC114.4008E
SWOr062/36.0STILLWATER VOR/DME108.4007E

 
NDB name  Hdg/Dist  Freq  Var  ID
WILLIAM POGUE319/19.736206EOWP --- .-- .--.

Airport Services

Fuel available: 100LL
FUEL AVBL 24 HRS SELF SERVICE WITH CREDIT CARD.
Parking: tiedowns
Airframe service: NONE
Powerplant service: NONE
Bottled oxygen: NONE
Bulk oxygen: NONE

Runway Information

Runway 17/35

Dimensions: 3210 x 60 ft. / 978 x 18 m
Surface: asphalt, in good condition
Weight bearing capacity: 
Single wheel: 8.0
Runway edge lights: medium intensity
RUNWAY 17  RUNWAY 35
Latitude: 36-26.829500N36-26.300500N
Longitude: 096-23.233500W096-23.233500W
Elevation: 819.0 ft.820.0 ft.
Traffic pattern: leftleft
Runway heading: 174 magnetic, 180 true354 magnetic, 000 true
Displaced threshold: 180 ft.180 ft.
Markings: basic, in good conditionbasic, in good condition
Visual slope indicator: 4-light PAPI on left4-light PAPI on left
Obstructions: 16 ft. trees, 430 ft. from runway, 14:1 slope to clear14 ft. trees, 240 ft. from runway, 120 ft. right of centerline, 2:1 slope to clear

Airport Ownership and Management from official FAA records

Ownership: Publicly-owned
Owner: CITY OF HOMINY
219 W. 1ST ST., PO BOX 219
HOMINY, OK 74035
Phone 918-885-2164
Manager: DANI MULLINS
219 W. 1ST ST., PO BOX 219
HOMINY, OK 74035
Phone 918-885-2164
CITY CLERK.

Airport Operational Statistics

Aircraft based on the field: 1
Single engine airplanes: 1
    
Aircraft operations: avg 33/month *
100% transient general aviation
* for 12-month period ending 25 June 2019

Additional Remarks

ULTRALIGHT ACTIVITY ON & INVOF ARPT.
FOR CD CTC KANSAS CITY ARTCC AT 913-254-8508.

Instrument Procedures

There are no published instrument procedures at H92.

Some nearby airports with instrument procedures:

KOWP - William R Pogue Municipal Airport (20 nm SE)
KBVO - Bartlesville Municipal Airport (26 nm NE)
KTUL - Tulsa International Airport (28 nm SE)
KRVS - Richard Lloyd Jones Jr Airport (31 nm SE)
KCUH - Cushing Municipal Airport (35 nm SW)
 
Loc | Ops | Rwys | IFR | FBO | Links
Com | Nav | Svcs | Stats | Notes
Area around H92 (Hominy Municipal Airport)
 
Road maps at: MapQuest Bing Google
 
Aerial photo
WARNING: Photo may not be current or correct
Aerial photo of H92 (Hominy Municipal Airport)
Photo by David Heon
Taken in September 2016
looking west

Do you have a better or more recent aerial photo of Hominy Municipal Airport that you would like to share? If so, please send us your photo.

 
Sectional chart

 
Airport distance calculator
Flying to Hominy Municipal Airport? Find the distance to fly.

From to H92

Sunrise and sunset
Times for 28-Oct-2020
 Local
(UTC-5)
 Zulu
(UTC)
Morning civil twilight07:2012:20
Sunrise07:4712:47
Sunset18:3223:32
Evening civil twilight18:5823:58

Current date and time
Zulu (UTC)  28-Oct-2020 12:50:29
Local (UTC-5)  28-Oct-2020 07:50:29
 
METAR
KOWP 
20nm SE 
281015Z AUTO 02005KT 3SM OVC002 03/03 A3005 RMK AO2 LTG DSNT SE T00320026 PWINO
KBVO 
26nm NE 
280153Z AUTO 01008KT 8SM -RA OVC009 01/00 A3022 RMK AO2 UPE07B33E38RAB07 SLP237 P0003 T00060000
KTUL 
28nm SE 
280953Z 01007KT 4SM -DZ BR OVC003 03/03 A3005 RMK AO2 SLP180 B27E37DZB37 P0000 T00280028
KRVS 
31nm SE 
280153Z 01007KT 8SM -RA OVC007 03/01 A3019 RMK AO2 SLP230 P0001 T00330011
KCUH 
35nm SW 
281015Z AUTO 36009KT 7SM OVC005 01/01 A3005 RMK AO2 T00060006
KSWO 
38nm SW 
281014Z AUTO 36007KT 5SM BR OVC004 01/00 A3007 RMK AO2 RAE01 CIG 003V008 P0000 T00110000 $
KPNC 
39nm NW 
280953Z AUTO 01007KT 4SM BR OVC007 01/M01 A3009 RMK AO2 SLP196 T00061006 FZRANO $
TAF
KBVO 
26nm NE 
280522Z 2806/2906 01007KT 6SM BR VCSH OVC006 TEMPO 2806/2809 P6SM NSW BKN010 FM280900 02005KT 5SM BR OVC003 TEMPO 2811/2815 4SM SHRA OVC001 FM281500 02008KT 2SM RA BR OVC003 FM290200 02007KT 3SM BR OVC003 PROB30 2904/2906 2SM -RADZ BR OVC002
KTUL 
28nm SE 
280522Z 2806/2906 01007KT P6SM VCSH OVC006 FM280900 02007KT 4SM BR OVC003 TEMPO 2811/2815 4SM SHRA OVC001 FM281500 02008KT 2SM RA BR OVC003 FM290200 02009KT 3SM BR OVC003 PROB30 2904/2906 2SM -RADZ BR OVC002
KRVS 
31nm SE 
280522Z 2806/2906 01007KT P6SM VCSH OVC006 FM280900 02007KT 4SM BR OVC003 TEMPO 2811/2815 4SM SHRA OVC001 FM281500 02008KT 2SM RA BR OVC003 FM290200 02007KT 3SM BR OVC003 PROB30 2902/2906 2SM -RADZ BR OVC002
NOTAMs
Click for the latest NOTAMs
NOTAMs are issued by the DoD/FAA and will open in a separate window not controlled by AirNav.

 

 
 

FBO, Fuel Providers, and Aircraft Ground Support

  
 Business Name 
 
 Contact 
 
 Services / Description 
 
Fuel Prices
 
Comments
  
City of Hominy 918-885-2164
no information available

If you are affiliated with City of Hominy and would like to show here your services, contact info, web link, logo, and more, click here
100LL
SS $3.50 
 Updated 22-Oct-2020
 
   2 read write
SS=Self service
Update Fuel Prices
 

Would you like to see your business listed on this page?

 If your business provides an interesting product or service to pilots, flight crews, aircraft, or users of the Hominy Municipal Airport, you should consider listing it here.  To start the listing process, click on the button below
 
Add a business
 

Other Pages about Hominy Municipal Airport

Update a link
 
Copyright © AirNav, LLC. All rights reserved. Privacy Policy  Contact